ATLAS CENTAUR 2 DEB, 3741

Orbit data source: Space-Track

ATLAS CENTAUR 2 DEB, 3741 is space debris in LEO originally from a launch on Wed, 27 Nov 1963 UTC launched from the Air Force Eastern Test Range (AFETR). Debris objects in space refer to the collection of defunct objects orbiting the Earth. Examples of debris include non-operational satellites, rocket bodies, and fragments generated from explosions, collisions, or faulty payload assembly.

Loading next visibility...
Identifier
3741, 1963-047L
Orbit
LEO
Last TLE update
1 day ago
Origin
Manufacturer
Unknown
Mission
Spacecraft
Bus & Motor
Unknown
Mass
Unknown
Launch date (UTC)
1963-11-27 (62 years ago)
Launch vehicle
Unknown
Launch site
Air Force Eastern Test Range (AFETR)
Object type
Payload
Rocket body
Debris
Shape & HBR
Unknown
Radar Cross Section
Small (<0.1 m²)

Expand to show TLE details & history

TLE from 1 day ago
0 ATLAS CENTAUR 2 DEB
1 03741U 63047L   25181.55831076  .00003770  00000-0  76353-3 0  9991
2 03741  29.8806 284.3631 0253898 279.0539  78.1412 14.40944829861943
Epoch: 2025-06-30T13:23Z
TLE epoch observation values (Epoch: 2025-06-30T13:23:58.049Z)
Latitude
-0.00002°
Longitude
164.5048°
Altitude
721.054 km
Speed
7.514 km/s
True Right ascension
18h 57m 27s
True Declination
0° 00' 00"
Sunlit
Object was in full shadow at epoch
Visualization orbit readout
Latitude
28.61045°
Longitude
-131.6814°
Altitude
897.397 km
Speed
7.334 km/s
Apparent Right ascension
20h 53m 08s
Apparent Declination
-4° 04' 12"
Sunlit
Object is in daylight
Visualization observer readout
Local Sidereal Time
05:40:03
Azimuth
296.526° NW
Elevation
-33.695°
Doppler factor
1
Orbital elements
Apogee altitude
940.481 km
Perigee altitude
578.046 km
Semi-major axis
7,137.401 km
Eccentricity
0.02539
Inclination
29.8806°
RAAN
284.3631°
Arg. of periapsis
279.0539°
True anomaly
Unknown
Mean anomaly
78.1412°
Eccentric anomaly
Unknown
Mean motion
3.59942 °/min
Orbital period
100.02 mins
BSTAR
0.00076353
Loading maneuver chart data...
Loading SW <> Apogee altitude chart data...

ATLAS CENTAUR 2 DEB Visibility forecast

Observer location: undefined°, undefined°

Span
Click to sort rows by Start time (UTC) header in descending order
Start Az.
Max El. time (UTC)
Max El. Az.
Max El.
End time (UTC)
End Az.
8 mins2025-07-02 10:32:22.348Z211.498° SW2025-07-02 10:36:22.348Z164.906° S21.72°2025-07-02 10:40:22.348Z118.712° SE
9 mins2025-07-02 12:18:22.348Z229.536° WSW2025-07-02 12:22:22.348Z173.223° S28.07°2025-07-02 12:27:22.348Z118.924° SE
8 mins2025-07-02 14:04:22.348Z236.211° WSW2025-07-02 14:07:22.348Z200.12° SSW23.97°2025-07-02 14:12:22.348Z142.369° SSE
|